Regional Weather Roundup
Issued by NWS

Home | Current Version | Previous Version | Text Only | Print | Product List | Glossary On
Versions: 1 2 3 4 5 6 7 8 9 10 11 12 13 14 15 16 17 18 19 20 21 22 23 24 25 26 27 28 29 30 31 32 33 34 35 36 37 38 39 40 41 42 43 44 45 46 47 48 49 50
635
ASUS44 KFWD 250415
RWRTX
NORTH TEXAS HOURLY WEATHER ROUNDUP
NATIONAL WEATHER SERVICE FORT WORTH TX
1100 PM CDT SUN JUL 24 2016

NOTE: "FAIR" INDICATES FEW OR NO CLOUDS BELOW 12,000 FEET WITH NO
SIGNIFICANT WEATHER AND/OR OBSTRUCTIONS TO VISIBILITY.

TXZ118-119-250500-
DALLAS/FORT WORTH METROPLEX

CITY           SKY/WX    TMP DP  RH WIND       PRES   REMARKS
DFW AIRPORT    PTCLDY    90  69  50 SE10      29.93R HX  94
DALLAS LOVE    MOCLDY    90  70  51 SE10      29.93R HX  95
FTW MEACHAM    CLEAR     92  70  48 SE8       29.92S HX  97
DAL-EXECUTIVE  CLEAR     87  70  56 SE8       29.94R HX  92
FTW-ALLIANCE   PTCLDY    89  69  51 SE9       29.93R HX  93
FTW-NAS-JRB    CLEAR     92  67  43 SE10      29.93R HX  95
FTW-SPINKS     CLEAR     84  71  64 SE5       29.95S
ARLINGTON      CLEAR     88  70  55 E8        29.93S HX  93
GRAND PRAIRIE  CLEAR     88  67  49 E7        29.94S HX  91
ADDISON        CLEAR     91  71  52 SE9G16    29.96R HX  96
MESQUITE       CLOUDY    85  68  55 SE7       29.94S
LANCASTER      PTCLDY    87  71  58 E5        29.95R HX  92
$$

TXZ091>094-102>105-117-120-121-131>134-250500-
NORTH CENTRAL TEXAS

CITY           SKY/WX    TMP DP  RH WIND       PRES   REMARKS
SHRMAN/DENISON CLEAR     90  72  55 SE9       29.96R HX  96
GAINESVILLE    CLEAR     83  71  67 SE3       29.96R
BOWIE          CLEAR     83  73  71 CALM      29.96R
BRIDGEPORT     CLEAR     84  72  65 S6        29.95R
DECATUR        CLEAR     86  69  55 SE7       29.95S HX  90
DENTON         CLEAR     86  71  60 SE7       29.93R HX  91
MCKINNEY       PTCLDY    88  69  53 SE10      29.95R HX  92
GREENVILLE     CLEAR     86  70  58 SE9       29.95S HX  90
ROCKWALL       CLEAR     86  69  57 S7        29.93S
TERRELL        CLOUDY    86  69  56 SE10      29.94S HX  90
WAXAHACHIE     CLEAR     86  72  62 CALM      29.95S HX  92
CLEBURNE       CLEAR     88  75  66 E12       29.96R HX  97
GRANBURY       PTCLDY    90  70  51 E8        29.95R HX  95
$$

TXZ083>090-098>101-113>116-127>130-139>142-154-155-250500-
WESTERN NORTH TEXAS

CITY           SKY/WX    TMP DP  RH WIND       PRES   REMARKS
WICHITA FALLS  CLEAR     84  70  62 SE8       29.94R
WF-KICKAPOO    CLEAR     86  70  58 SE5       29.95R HX  90
VERNON         CLEAR     89  63  40 SE9       29.96R HX  90
ABILENE        CLEAR     87  63  44 SE12      29.98R
ABILENE-DYESS  CLEAR     89  64  44 E10       29.96R HX  90
CISCO          CLEAR     84  64  51 SE6       29.99R
BRECKENRIDGE   CLEAR     89  65  44 SE8       29.95R HX  90
GRAHAM         CLEAR     88  69  53 SE6       29.93S HX  92
MINERAL WELLS  CLEAR     84  69  60 SE7       29.93R
STEPHENVILLE   CLEAR     87  64  45 SE8       29.99R
COMANCHE       CLEAR     84  65  52 SE5       29.97R
BROWNWOOD      CLEAR     84  64  51 E7        29.96R
COLEMAN        CLEAR     87  60  40 E6        29.97R
$$

TXZ143>147-156>162-174-175-250500-
CENTRAL TEXAS

CITY           SKY/WX    TMP DP  RH WIND       PRES   REMARKS
WACO           CLEAR     87  68  52 SE6       29.92R HX  90
WACO-MCGREGOR  CLEAR     87  68  52 E6        29.93R HX  90
HILLSBORO      PTCLDY    85  72  63 E8        29.94S HX  91
CORSICANA      PTCLDY    86  71  60 E9        29.95R HX  91
MEXIA          PTCLDY    85  72  64 SE3       29.94R HX  91
HEARNE         CLEAR     86  73  66 SE3       29.95R HX  93
CAMERON        PTCLDY    86  73  63 S6        29.92S HX  93
TEMPLE         CLEAR     88  71  57 SE7       29.93R HX  94
KILLEEN        CLEAR     88  68  51 E7        29.93R HX  91
KILLEEN-SKYLRK CLEAR     89  71  55 SE6       29.94R HX  95
FORT HOOD      CLEAR     87  70  56 SE6       29.91R HX  91
GATESVILLE     CLEAR     86  70  58 CALM      29.96R HX  90
HAMILTON       CLEAR     86  66  50 SE8       29.97S
LAMPASAS       CLEAR     83  69  62 E3        29.94S
$$

TXZ095>097-106>112-122>126-135>138-148>153-164>167-250500-
EAST TEXAS

CITY           SKY/WX    TMP DP  RH WIND       PRES   REMARKS
PARIS          CLEAR     84  66  54 SE15      29.97R
SULPHUR SPRNGS CLEAR     84  71  64 SE8       29.98S
MOUNT PLEASANT PTCLDY    78  70  74 SE3       29.98F
GILMER         CLOUDY    78  71  78 S3        29.97S
MINEOLA        CLOUDY    82  72  69 SE3       29.97S
TYLER          CLOUDY    81  71  71 SE13      29.97R
LONGVIEW       PTCLDY    78  72  81 S8        29.96S
MARSHALL       PTCLDY    75  72  89 CALM      29.99S
ATHENS         CLEAR     82  70  65 SE7       29.95R
PALESTINE      PTCLDY    83  72  69 E8        29.98R
JACKSONVILLE   CLOUDY    79  71  76 S10G20    30.01R
HENDERSON      MOCLDY    78  72  82 S3        29.99R
CENTER         LGT RAIN  77  75  95 CALM      29.98S
NACOGDOCHES    CLOUDY   N/A N/A N/A S6        29.96F
LUFKIN         LGT RAIN  75  73  93 S5        29.97F
$$

SUPPLEMENTAL OBSERVATIONS (CENTRAL)

CITY           SKY/WX    TMP DP  RH WIND       PRES   REMARKS
DENISON DAM      N/A     90  70  51 SE7         N/A  HX  95
CADDO GRASSLND   N/A     88  70  55 S5          N/A  HX  92
PAT MAYSE LAKE   N/A     88  75  66 SE12        N/A  HX  97
GREENVILLE       N/A     84  70  61 SE8         N/A
CEDAR HILL       N/A     84  68  58 SE3         N/A
ATHENS           N/A     84  73  70 SE12        N/A  HX  91
LAKE LIMESTONE   N/A     84  68  58 E3          N/A
MCGREGOR         N/A     88  70  55 SE3         N/A  HX  92
TEMPLE           N/A     88  68  51 SE9         N/A  HX  91
$$

SUPPLEMENTAL OBSERVATIONS (WEST)

CITY           SKY/WX    TMP DP  RH WIND       PRES   REMARKS
MILLERS CREEK    N/A     88  64  45 SE8         N/A
POSSUM KINGDOM   N/A     88  66  48 SE7         N/A  HX  90
LBJ GRASSLAND    N/A     88  70  55 SE5         N/A  HX  92
GRANBURY         N/A     90  70  51 SE8         N/A  HX  95
COMANCHE         N/A     84  64  51 SE7         N/A
HAMBY            N/A     84  61  45 SE8         N/A
COLORADO BEND    N/A     86  64  48 S5          N/A
$$

SUPPLEMENTAL OBSERVATIONS (EAST)

CITY           SKY/WX    TMP DP  RH WIND       PRES   REMARKS
CLARKSVILLE      N/A     82  72  69 S7G15       N/A
TEXARKANA        N/A     77  72  83 SE1         N/A
LINDEN           N/A     75  70  83 E2          N/A
CADDO LAKE       N/A     73  68  83 CALM        N/A
GILMER           N/A     79  72  78 S2          N/A
HENDERSON        N/A     79  72  78 S3          N/A
LUFKIN           N/A     73  72  94 MISG        N/A
N SABINE NF      N/A     75  72  88 MISG        N/A
S SABINE NF      N/A     79  73  83 CALM        N/A
$$

SUPPLEMENTAL OBSERVATIONS ARE A COLLECTION OF AUTOMATED INSTRUMENTS
THAT ARE MAINTAINED BY A VARIETY OF FEDERAL AND STATE AGENCIES.
CERTAIN ELEMENTS...SUCH AS HUMIDITY VALUES AND SUSTAINED WIND
SPEEDS...MAY BE APPROXIMATED.





USA.gov is the U.S. government's official web portal to all federal, state and local government web resources and services.